Location: Newark
(27.9675°N, 86.8869°E)
Time: 04:22:33
(UTC+00:00)

Courier 1B Rocket - Pass Details

Date: 23 October 2019
Orbit: 920 x 1202 km, 28.2° (Epoch: 16 November)

Event Time Altitude Azimuth Distance (km) Brightness Sun altitude
Rises 19:37:20 0° 247° (WSW) 3,692 - -61.3°
Reaches altitude 10° 19:40:04 10° 244° (WSW) 2,706 - -60.8°
Maximum altitude 19:46:29 64° 164° (SSE) 1,029 - -59.5°
Drops below altitude 10° 19:52:39 10° 84° (E) 2,607 - -58.3°
Sets 19:55:15 0° 81° (E) 3,547 - -57.8°
